BEIDOU-3 IGSO-3 (C40)

Last updated on Tue Aug 25 2026 00:03:26 GMT+0000 (Coordinated Universal Time)

1 44709U 19073A 26236.52133083 -.00000136 00000+0 00000+0 0 9997 2 44709 54.6843 280.1536 0046912 197.4678 162.4913 1.00269787 25143
UTC large
Height (km)
Speed (km/s)
/
Latitude / Longitude
Inclination (degrees)
Orbital Period (minutes)
Azimuth
Elevation
Range (km)
Doppler Factor

Next 0 passes for location: London (51.5072 / 0.1276)

No passes found over London.
BEIDOU-3 IGSO-3 (C40)